Location: Vihti�l�
(61.3833°N, 23.0667°E)
Time: 03:52:01
(UTC+00:00)

Cosmos 405 Rocket - Pass Details

Date: 29 November 2020
Orbit: 489 x 553 km, 81.3° (Epoch: 19 January)

Event Time Altitude Azimuth Distance (km) Brightness Sun altitude
Rises 04:07:00 0° 178° (S) 2,572 6.4 -19.9°
Reaches altitude 10° 04:09:09 10° 172° (S) 1,701 5.5 -19.6°
Maximum altitude 04:12:43 46° 99° (E) 692 3.8 -19.2°
Drops below altitude 10° 04:16:22 10° 26° (NNE) 1,743 5.5 -18.8°
Sets 04:18:35 0° 20° (NNE) 2,645 6.4 -18.5°
